Time,TemperatureF,DewpointF,PressureIn,WindDirection,WindDirectionDegrees,WindSpeedMPH,WindSpeedGustMPH,Humidity,HourlyPrecipIn,Conditions,Clouds,dailyrainin,SoftwareType,DateUTC
2013-05-26 00:04:00,76.6,74.8,29.99,SE,124,6.0,14.0,94,0.00,,,0.00,meteohub,2013-05-26 05:04:00,
2013-05-26 00:09:00,76.6,74.8,29.99,SE,127,10.0,13.0,94,0.00,,,0.00,meteohub,2013-05-26 05:09:00,
2013-05-26 00:14:00,76.6,74.8,29.99,SE,127,6.0,13.0,94,0.00,,,0.00,meteohub,2013-05-26 05:14:00,
2013-05-26 00:19:00,76.6,74.8,29.99,SE,141,6.0,14.0,94,0.00,,,0.00,meteohub,2013-05-26 05:19:00,
2013-05-26 00:24:00,76.6,74.8,29.99,SE,129,7.0,14.0,94,0.00,,,0.00,meteohub,2013-05-26 05:24:00,
2013-05-26 00:29:00,76.6,74.8,29.99,SE,124,9.0,14.0,94,0.00,,,0.00,meteohub,2013-05-26 05:29:00,
2013-05-26 00:34:00,76.6,74.8,29.99,SE,141,11.0,12.0,94,0.00,,,0.00,meteohub,2013-05-26 05:34:00,
2013-05-26 00:40:00,76.6,74.8,29.99,SE,146,4.0,11.0,94,0.00,,,0.00,meteohub,2013-05-26 05:40:00,
2013-05-26 00:44:00,76.6,74.8,29.99,SE,134,5.0,12.0,94,0.00,,,0.00,meteohub,2013-05-26 05:44:00,
2013-05-26 00:50:00,76.5,74.7,29.99,SE,125,5.0,12.0,94,0.00,,,0.00,meteohub,2013-05-26 05:50:00,
2013-05-26 00:55:00,76.5,74.8,29.99,SE,135,6.0,10.0,95,0.00,,,0.00,meteohub,2013-05-26 05:55:00,
2013-05-26 01:00:00,76.5,74.8,29.99,ESE,108,6.0,10.0,95,0.00,,,0.00,meteohub,2013-05-26 06:00:00,
2013-05-26 01:05:00,76.6,75.0,29.99,SE,124,6.0,9.0,95,0.00,,,0.00,meteohub,2013-05-26 06:05:00,
2013-05-26 01:10:00,76.5,74.8,29.99,SSE,150,7.0,9.0,95,0.00,,,0.00,meteohub,2013-05-26 06:10:00,
2013-05-26 01:15:00,76.6,75.0,29.99,SE,134,7.0,9.0,95,0.00,,,0.00,meteohub,2013-05-26 06:15:00,
2013-05-26 01:20:00,76.6,75.0,29.99,SE,141,5.0,9.0,95,0.00,,,0.00,meteohub,2013-05-26 06:20:00,
2013-05-26 01:25:00,76.6,75.0,29.99,SE,127,7.0,11.0,95,0.00,,,0.00,meteohub,2013-05-26 06:25:00,
2013-05-26 01:30:00,76.6,75.0,29.99,SE,129,7.0,11.0,95,0.00,,,0.00,meteohub,2013-05-26 06:30:00,
2013-05-26 01:35:00,76.6,75.0,29.98,SE,135,6.0,11.0,95,0.00,,,0.00,meteohub,2013-05-26 06:35:00,
2013-05-26 01:40:00,76.8,75.2,29.98,SE,126,6.0,11.0,95,0.00,,,0.00,meteohub,2013-05-26 06:40:00,
2013-05-26 01:45:00,76.8,75.2,29.98,SE,124,4.0,10.0,95,0.00,,,0.00,meteohub,2013-05-26 06:45:00,
2013-05-26 01:50:00,76.8,75.2,29.98,SE,127,9.0,10.0,95,0.00,,,0.00,meteohub,2013-05-26 06:50:00,
2013-05-26 01:55:00,76.6,75.0,29.98,SE,130,7.0,9.0,95,0.00,,,0.00,meteohub,2013-05-26 06:55:00,
2013-05-26 02:00:00,76.6,75.0,29.98,ESE,105,7.0,10.0,95,0.00,,,0.00,meteohub,2013-05-26 07:00:00,
2013-05-26 02:06:00,76.8,75.0,29.98,SE,143,5.0,11.0,94,0.00,,,0.00,meteohub,2013-05-26 07:06:00,
2013-05-26 02:11:00,76.8,75.0,29.98,SE,131,10.0,12.0,94,0.00,,,0.00,meteohub,2013-05-26 07:11:00,
2013-05-26 02:16:00,77.0,75.2,29.98,SSE,160,6.0,12.0,94,0.00,,,0.00,meteohub,2013-05-26 07:16:00,
2013-05-26 02:21:00,77.0,74.8,29.98,ESE,118,6.0,13.0,93,0.00,,,0.00,meteohub,2013-05-26 07:21:00,
2013-05-26 02:26:00,77.0,74.8,29.98,SE,146,6.0,13.0,93,0.00,,,0.00,meteohub,2013-05-26 07:26:00,
2013-05-26 02:31:00,77.0,74.8,29.98,ESE,122,8.0,11.0,93,0.00,,,0.00,meteohub,2013-05-26 07:31:00,
2013-05-26 02:36:00,77.0,74.8,29.98,SE,130,5.0,10.0,93,0.00,,,0.00,meteohub,2013-05-26 07:36:00,
2013-05-26 02:41:00,77.0,74.8,29.98,SE,139,5.0,10.0,93,0.00,,,0.00,meteohub,2013-05-26 07:41:00,
2013-05-26 02:46:00,77.2,75.0,29.98,ESE,112,8.0,10.0,93,0.00,,,0.00,meteohub,2013-05-26 07:46:00,
2013-05-26 02:51:00,77.2,75.0,29.98,ESE,113,8.0,11.0,93,0.00,,,0.00,meteohub,2013-05-26 07:51:00,
2013-05-26 02:56:00,77.2,75.0,29.98,SE,127,7.0,11.0,93,0.00,,,0.00,meteohub,2013-05-26 07:56:00,
2013-05-26 03:01:00,77.2,75.0,29.98,ESE,116,8.0,11.0,93,0.00,,,0.00,meteohub,2013-05-26 08:01:00,
2013-05-26 03:06:00,77.0,74.8,29.98,SE,133,5.0,11.0,93,0.00,,,0.00,meteohub,2013-05-26 08:06:00,
2013-05-26 03:11:00,77.0,74.8,29.98,SE,139,5.0,10.0,93,0.00,,,0.00,meteohub,2013-05-26 08:11:00,
2013-05-26 03:16:00,77.0,74.8,29.97,SE,127,6.0,10.0,93,0.00,,,0.00,meteohub,2013-05-26 08:16:00,
2013-05-26 03:21:00,77.0,74.8,29.97,SE,127,5.0,10.0,93,0.00,,,0.00,meteohub,2013-05-26 08:21:00,
2013-05-26 03:26:00,77.0,74.8,29.97,SE,129,7.0,10.0,93,0.00,,,0.00,meteohub,2013-05-26 08:26:00,
2013-05-26 03:32:00,76.8,74.7,29.97,East,100,7.0,10.0,93,0.00,,,0.00,meteohub,2013-05-26 08:32:00,
2013-05-26 03:37:00,76.8,74.7,29.97,East,101,6.0,9.0,93,0.00,,,0.00,meteohub,2013-05-26 08:37:00,
2013-05-26 03:42:00,76.8,75.0,29.97,SE,130,4.0,9.0,94,0.00,,,0.00,meteohub,2013-05-26 08:42:00,
2013-05-26 03:47:00,76.8,75.0,29.97,SE,127,5.0,10.0,94,0.00,,,0.00,meteohub,2013-05-26 08:47:00,
2013-05-26 03:52:00,76.6,74.8,29.97,SE,130,7.0,10.0,94,0.00,,,0.00,meteohub,2013-05-26 08:52:00,
2013-05-26 03:57:00,76.6,74.8,29.97,SE,129,6.0,9.0,94,0.00,,,0.00,meteohub,2013-05-26 08:57:00,
2013-05-26 04:02:00,76.6,74.8,29.97,SE,132,5.0,9.0,94,0.00,,,0.00,meteohub,2013-05-26 09:02:00,
2013-05-26 04:07:00,76.6,74.8,29.96,SE,134,5.0,9.0,94,0.00,,,0.00,meteohub,2013-05-26 09:07:00,
2013-05-26 04:11:00,76.8,75.0,29.96,ESE,116,6.0,9.0,94,0.00,,,0.00,meteohub,2013-05-26 09:11:00,
2013-05-26 04:17:00,76.6,74.8,29.96,ESE,120,8.0,10.0,94,0.00,,,0.00,meteohub,2013-05-26 09:17:00,
2013-05-26 04:22:00,76.6,74.8,29.96,ESE,116,8.0,10.0,94,0.00,,,0.00,meteohub,2013-05-26 09:22:00,
2013-05-26 04:27:00,76.6,74.8,29.96,ESE,121,5.0,10.0,94,0.00,,,0.00,meteohub,2013-05-26 09:27:00,
2013-05-26 04:32:00,76.6,74.8,29.95,ESE,116,9.0,10.0,94,0.00,,,0.00,meteohub,2013-05-26 09:32:00,
2013-05-26 04:37:00,76.6,74.8,29.95,ESE,108,5.0,10.0,94,0.00,,,0.00,meteohub,2013-05-26 09:37:00,
2013-05-26 04:42:00,76.6,74.8,29.95,ESE,113,5.0,9.0,94,0.00,,,0.00,meteohub,2013-05-26 09:42:00,
2013-05-26 04:47:00,76.6,74.8,29.95,ESE,122,5.0,9.0,94,0.00,,,0.00,meteohub,2013-05-26 09:47:00,
2013-05-26 04:52:00,76.6,74.8,29.95,ESE,112,6.0,9.0,94,0.00,,,0.00,meteohub,2013-05-26 09:52:00,
2013-05-26 04:57:00,76.5,74.7,29.95,ESE,107,8.0,9.0,94,0.00,,,0.00,meteohub,2013-05-26 09:57:00,
2013-05-26 05:02:00,76.5,74.7,29.95,SE,127,4.0,9.0,94,0.00,,,0.00,meteohub,2013-05-26 10:02:00,
2013-05-26 05:07:00,76.5,74.7,29.95,ESE,113,7.0,9.0,94,0.00,,,0.00,meteohub,2013-05-26 10:07:00,
2013-05-26 05:12:00,76.3,74.5,29.94,SE,141,4.0,9.0,94,0.00,,,0.00,meteohub,2013-05-26 10:12:00,
2013-05-26 05:17:00,76.3,74.5,29.94,SE,134,5.0,8.0,94,0.00,,,0.00,meteohub,2013-05-26 10:17:00,
2013-05-26 05:22:00,76.3,74.5,29.95,SE,135,4.0,8.0,94,0.00,,,0.00,meteohub,2013-05-26 10:22:00,
2013-05-26 05:27:00,76.3,74.5,29.95,SE,141,7.0,8.0,94,0.00,,,0.00,meteohub,2013-05-26 10:27:00,
2013-05-26 05:32:00,76.3,74.5,29.95,SSE,158,7.0,9.0,94,0.00,,,0.00,meteohub,2013-05-26 10:32:00,
2013-05-26 05:37:00,76.3,74.5,29.95,SSE,158,4.0,9.0,94,0.00,,,0.00,meteohub,2013-05-26 10:37:00,
2013-05-26 05:42:00,76.3,74.5,29.95,SE,128,4.0,9.0,94,0.00,,,0.00,meteohub,2013-05-26 10:42:00,
2013-05-26 05:47:00,76.3,74.5,29.95,SE,132,8.0,9.0,94,0.00,,,0.00,meteohub,2013-05-26 10:47:00,
2013-05-26 05:52:00,76.3,74.5,29.94,ESE,118,7.0,11.0,94,0.00,,,0.00,meteohub,2013-05-26 10:52:00,
2013-05-26 05:57:00,76.5,74.7,29.94,SE,124,9.0,12.0,94,0.00,,,0.00,meteohub,2013-05-26 10:57:00,
2013-05-26 06:02:00,76.3,74.5,29.94,ESE,120,7.0,13.0,94,0.00,,,0.00,meteohub,2013-05-26 11:02:00,
2013-05-26 06:07:00,76.5,74.7,29.95,East,101,8.0,13.0,94,0.00,,,0.00,meteohub,2013-05-26 11:07:00,
2013-05-26 06:12:00,76.5,74.7,29.95,SE,134,8.0,12.0,94,0.00,,,0.00,meteohub,2013-05-26 11:12:00,
2013-05-26 06:16:00,76.5,74.7,29.95,SE,143,4.0,12.0,94,0.00,,,0.00,meteohub,2013-05-26 11:16:00,
2013-05-26 06:22:00,76.5,74.7,29.96,SE,133,6.0,12.0,94,0.00,,,0.00,meteohub,2013-05-26 11:22:00,
2013-05-26 06:27:00,76.5,74.7,29.96,ESE,118,7.0,9.0,94,0.00,,,0.00,meteohub,2013-05-26 11:27:00,
2013-05-26 06:32:00,76.5,74.7,29.96,SE,129,6.0,10.0,94,0.00,,,0.00,meteohub,2013-05-26 11:32:00,
2013-05-26 06:37:00,76.5,74.7,29.96,ESE,115,5.0,10.0,94,0.00,,,0.00,meteohub,2013-05-26 11:37:00,
2013-05-26 06:42:00,76.5,74.7,29.97,ESE,115,5.0,10.0,94,0.00,,,0.00,meteohub,2013-05-26 11:42:00,
2013-05-26 06:47:00,76.5,74.8,29.97,SE,132,4.0,8.0,95,0.00,,,0.00,meteohub,2013-05-26 11:47:00,
2013-05-26 06:52:00,76.5,74.8,29.97,SE,127,6.0,8.0,95,0.00,,,0.00,meteohub,2013-05-26 11:52:00,
2013-05-26 06:57:00,76.5,74.7,29.97,ESE,117,4.0,8.0,94,0.00,,,0.00,meteohub,2013-05-26 11:57:00,
2013-05-26 07:02:00,76.5,74.7,29.97,ESE,116,5.0,8.0,94,0.00,,,0.00,meteohub,2013-05-26 12:02:00,
2013-05-26 07:07:00,76.5,74.7,29.97,ESE,105,7.0,8.0,94,0.00,,,0.00,meteohub,2013-05-26 12:07:00,
2013-05-26 07:12:00,76.6,74.8,29.97,SE,133,6.0,7.0,94,0.00,,,0.00,meteohub,2013-05-26 12:12:00,
2013-05-26 07:17:00,76.6,74.8,29.98,ESE,107,6.0,10.0,94,0.00,,,0.00,meteohub,2013-05-26 12:17:00,
2013-05-26 07:22:00,76.6,74.8,29.97,SE,133,5.0,10.0,94,0.00,,,0.00,meteohub,2013-05-26 12:22:00,
2013-05-26 07:27:00,76.6,74.8,29.97,ESE,120,8.0,10.0,94,0.00,,,0.00,meteohub,2013-05-26 12:27:00,
2013-05-26 07:32:00,76.6,74.8,29.97,ESE,120,5.0,9.0,94,0.00,,,0.00,meteohub,2013-05-26 12:32:00,
2013-05-26 07:37:00,76.8,75.0,29.97,ESE,120,6.0,10.0,94,0.00,,,0.00,meteohub,2013-05-26 12:37:00,
2013-05-26 07:42:00,76.8,75.0,29.97,SE,127,6.0,10.0,94,0.00,,,0.00,meteohub,2013-05-26 12:42:00,
2013-05-26 07:47:00,77.0,75.2,29.98,SE,135,4.0,10.0,94,0.00,,,0.00,meteohub,2013-05-26 12:47:00,
2013-05-26 07:52:00,77.0,74.8,29.98,SE,134,5.0,9.0,93,0.00,,,0.00,meteohub,2013-05-26 12:52:00,
2013-05-26 07:57:00,77.2,75.0,29.99,SE,146,6.0,9.0,93,0.00,,,0.00,meteohub,2013-05-26 12:57:00,
2013-05-26 08:02:00,77.2,75.0,29.99,ESE,120,5.0,9.0,93,0.00,,,0.00,meteohub,2013-05-26 13:02:00,
2013-05-26 08:07:00,77.4,74.8,29.99,SE,127,7.0,11.0,92,0.00,,,0.00,meteohub,2013-05-26 13:07:00,
2013-05-26 08:12:00,77.4,74.8,29.99,SE,143,9.0,11.0,92,0.00,,,0.00,meteohub,2013-05-26 13:12:00,
2013-05-26 08:17:00,77.5,74.7,29.99,SSE,150,5.0,12.0,91,0.00,,,0.00,meteohub,2013-05-26 13:17:00,
2013-05-26 08:22:00,77.9,74.7,29.99,ESE,118,9.0,12.0,90,0.00,,,0.00,meteohub,2013-05-26 13:22:00,
2013-05-26 08:27:00,78.1,74.8,29.99,ESE,117,8.0,13.0,90,0.00,,,0.00,meteohub,2013-05-26 13:27:00,
2013-05-26 08:32:00,78.1,74.5,29.99,SE,128,11.0,13.0,89,0.00,,,0.00,meteohub,2013-05-26 13:32:00,
2013-05-26 08:37:00,78.3,74.7,29.99,ESE,103,11.0,13.0,89,0.00,,,0.00,meteohub,2013-05-26 13:37:00,
2013-05-26 08:42:00,78.3,74.5,29.99,SE,129,11.0,13.0,88,0.00,,,0.00,meteohub,2013-05-26 13:42:00,
2013-05-26 08:47:00,78.4,74.8,29.99,ESE,107,9.0,15.0,89,0.00,,,0.00,meteohub,2013-05-26 13:47:00,
2013-05-26 08:52:00,78.4,74.7,30.00,SE,132,9.0,15.0,88,0.00,,,0.00,meteohub,2013-05-26 13:52:00,
2013-05-26 08:57:00,78.6,74.8,30.00,ESE,112,7.0,15.0,88,0.00,,,0.00,meteohub,2013-05-26 13:57:00,
2013-05-26 09:02:00,78.8,75.0,30.00,SE,135,8.0,13.0,88,0.00,,,0.00,meteohub,2013-05-26 14:02:00,
2013-05-26 09:07:00,79.2,75.0,30.00,ESE,115,6.0,13.0,87,0.00,,,0.00,meteohub,2013-05-26 14:07:00,
2013-05-26 09:12:00,79.2,74.7,30.00,ESE,119,7.0,15.0,86,0.00,,,0.00,meteohub,2013-05-26 14:12:00,
2013-05-26 09:17:00,79.2,74.7,30.00,SE,127,7.0,15.0,86,0.00,,,0.00,meteohub,2013-05-26 14:17:00,
2013-05-26 09:22:00,79.3,74.8,30.00,SE,132,9.0,15.0,86,0.00,,,0.00,meteohub,2013-05-26 14:22:00,
2013-05-26 09:27:00,79.5,74.7,30.00,ESE,110,9.0,16.0,85,0.00,,,0.00,meteohub,2013-05-26 14:27:00,
2013-05-26 09:32:00,79.9,75.0,30.00,SE,127,8.0,17.0,85,0.00,,,0.00,meteohub,2013-05-26 14:32:00,
2013-05-26 09:37:00,80.2,75.4,30.00,SE,129,8.0,18.0,85,0.00,,,0.00,meteohub,2013-05-26 14:37:00,
2013-05-26 09:42:00,80.4,74.8,30.01,SE,132,14.0,18.0,83,0.00,,,0.00,meteohub,2013-05-26 14:42:00,
2013-05-26 09:47:00,80.4,75.2,30.01,ESE,117,7.0,18.0,84,0.00,,,0.00,meteohub,2013-05-26 14:47:00,
2013-05-26 09:52:00,80.8,75.6,30.01,ESE,121,9.0,16.0,84,0.00,,,0.00,meteohub,2013-05-26 14:52:00,
2013-05-26 09:57:00,81.3,75.7,30.01,ESE,122,11.0,16.0,83,0.00,,,0.00,meteohub,2013-05-26 14:57:00,
2013-05-26 10:02:00,81.1,74.7,30.01,ESE,118,15.0,19.0,81,0.00,,,0.00,meteohub,2013-05-26 15:02:00,
2013-05-26 10:07:00,81.5,75.4,30.01,SE,132,11.0,19.0,82,0.00,,,0.00,meteohub,2013-05-26 15:07:00,
2013-05-26 10:12:00,82.0,75.2,30.01,ESE,116,13.0,19.0,80,0.00,,,0.00,meteohub,2013-05-26 15:12:00,
2013-05-26 10:17:00,82.0,74.8,30.01,SE,135,10.0,18.0,79,0.00,,,0.00,meteohub,2013-05-26 15:17:00,
2013-05-26 10:22:00,82.4,75.2,30.01,ESE,118,14.0,17.0,79,0.00,,,0.00,meteohub,2013-05-26 15:22:00,
2013-05-26 10:27:00,82.0,74.8,30.01,ESE,119,12.0,17.0,79,0.00,,,0.00,meteohub,2013-05-26 15:27:00,
2013-05-26 10:32:00,82.0,74.1,30.01,SE,124,14.0,17.0,77,0.00,,,0.00,meteohub,2013-05-26 15:32:00,
2013-05-26 10:37:00,82.2,74.3,30.01,SE,130,15.0,17.0,77,0.00,,,0.00,meteohub,2013-05-26 15:37:00,
2013-05-26 10:42:00,82.6,74.7,30.01,SE,130,14.0,17.0,77,0.00,,,0.00,meteohub,2013-05-26 15:42:00,
2013-05-26 10:47:00,82.6,74.7,30.01,SE,130,12.0,19.0,77,0.00,,,0.00,meteohub,2013-05-26 15:47:00,
2013-05-26 10:52:00,82.8,73.9,30.01,SE,138,11.0,19.0,75,0.00,,,0.00,meteohub,2013-05-26 15:52:00,
2013-05-26 10:57:00,82.8,74.5,30.01,SE,138,7.0,19.0,76,0.00,,,0.00,meteohub,2013-05-26 15:57:00,
2013-05-26 11:02:00,82.8,74.5,30.01,ESE,120,10.0,18.0,76,0.00,,,0.00,meteohub,2013-05-26 16:02:00,
2013-05-26 11:07:00,82.8,73.9,30.01,ESE,110,9.0,18.0,75,0.00,,,0.00,meteohub,2013-05-26 16:07:00,
2013-05-26 11:12:00,83.1,74.3,30.01,SE,126,16.0,19.0,75,0.00,,,0.00,meteohub,2013-05-26 16:12:00,
2013-05-26 11:17:00,83.7,74.1,30.01,ESE,122,15.0,19.0,73,0.00,,,0.00,meteohub,2013-05-26 16:17:00,
2013-05-26 11:22:00,83.7,74.1,30.01,SE,124,12.0,19.0,73,0.00,,,0.00,meteohub,2013-05-26 16:22:00,
2013-05-26 11:27:00,83.7,74.1,30.01,ESE,123,9.0,20.0,73,0.00,,,0.00,meteohub,2013-05-26 16:27:00,
2013-05-26 11:32:00,84.2,74.7,30.01,SE,132,14.0,20.0,73,0.00,,,0.00,meteohub,2013-05-26 16:32:00,
2013-05-26 11:37:00,83.8,74.3,30.01,SE,133,10.0,21.0,73,0.00,,,0.00,meteohub,2013-05-26 16:37:00,
2013-05-26 11:42:00,84.4,74.3,30.01,East,81,12.0,21.0,72,0.00,,,0.00,meteohub,2013-05-26 16:42:00,
2013-05-26 11:47:00,84.6,74.5,30.01,ESE,121,12.0,21.0,72,0.00,,,0.00,meteohub,2013-05-26 16:47:00,
2013-05-26 11:52:00,84.6,74.1,30.01,SE,132,9.0,17.0,71,0.00,,,0.00,meteohub,2013-05-26 16:52:00,
2013-05-26 11:57:00,84.6,73.2,30.01,ESE,120,12.0,17.0,69,0.00,,,0.00,meteohub,2013-05-26 16:57:00,
2013-05-26 12:02:00,84.6,73.2,30.00,ESE,113,10.0,20.0,69,0.00,,,0.00,meteohub,2013-05-26 17:02:00,
2013-05-26 12:07:00,84.9,74.1,30.00,SE,134,10.0,20.0,70,0.00,,,0.00,meteohub,2013-05-26 17:07:00,
2013-05-26 12:12:00,85.1,73.8,30.00,SE,130,11.0,20.0,69,0.00,,,0.00,meteohub,2013-05-26 17:12:00,
2013-05-26 12:17:00,85.3,73.6,30.00,SSE,156,9.0,19.0,68,0.00,,,0.00,meteohub,2013-05-26 17:17:00,
2013-05-26 12:22:00,85.3,73.6,29.99,East,93,10.0,19.0,68,0.00,,,0.00,meteohub,2013-05-26 17:22:00,
2013-05-26 12:27:00,86.0,73.8,30.00,SSE,163,11.0,18.0,67,0.00,,,0.00,meteohub,2013-05-26 17:27:00,
2013-05-26 12:32:00,85.8,73.2,29.99,ESE,105,12.0,18.0,66,0.00,,,0.00,meteohub,2013-05-26 17:32:00,
2013-05-26 12:37:00,85.8,73.6,29.99,SE,127,11.0,20.0,67,0.00,,,0.00,meteohub,2013-05-26 17:37:00,
2013-05-26 12:42:00,86.0,73.8,29.99,ESE,119,11.0,20.0,67,0.00,,,0.00,meteohub,2013-05-26 17:42:00,
2013-05-26 12:47:00,86.0,73.8,29.99,ESE,103,12.0,20.0,67,0.00,,,0.00,meteohub,2013-05-26 17:47:00,
2013-05-26 12:52:00,86.0,72.9,29.99,ESE,121,11.0,19.0,65,0.00,,,0.00,meteohub,2013-05-26 17:52:00,
2013-05-26 12:57:00,86.5,74.3,29.99,ESE,118,14.0,19.0,67,0.00,,,0.00,meteohub,2013-05-26 17:57:00,
2013-05-26 13:02:00,86.4,73.6,29.99,ESE,117,11.0,19.0,66,0.00,,,0.00,meteohub,2013-05-26 18:02:00,
2013-05-26 13:07:00,86.2,73.9,29.99,ENE,65,10.0,19.0,67,0.00,,,0.00,meteohub,2013-05-26 18:07:00,
2013-05-26 13:12:00,86.0,73.8,29.98,SE,126,12.0,20.0,67,0.00,,,0.00,meteohub,2013-05-26 18:12:00,
2013-05-26 13:17:00,85.8,73.6,29.98,SE,124,10.0,20.0,67,0.00,,,0.00,meteohub,2013-05-26 18:17:00,
2013-05-26 13:22:00,86.0,73.8,29.98,ESE,114,16.0,20.0,67,0.00,,,0.00,meteohub,2013-05-26 18:22:00,
2013-05-26 13:27:00,86.4,74.1,29.98,ESE,121,13.0,20.0,67,0.00,,,0.00,meteohub,2013-05-26 18:27:00,
2013-05-26 13:32:00,86.0,73.8,29.98,ESE,110,13.0,20.0,67,0.00,,,0.00,meteohub,2013-05-26 18:32:00,
2013-05-26 13:37:00,85.6,73.4,29.98,ENE,65,19.0,20.0,67,0.00,,,0.00,meteohub,2013-05-26 18:37:00,
2013-05-26 13:42:00,85.6,73.4,29.97,ESE,113,9.0,22.0,67,0.00,,,0.00,meteohub,2013-05-26 18:42:00,
2013-05-26 13:47:00,86.4,72.7,29.97,SE,143,14.0,22.0,64,0.00,,,0.00,meteohub,2013-05-26 18:47:00,
2013-05-26 13:52:00,86.4,72.7,29.97,SE,146,7.0,23.0,64,0.00,,,0.00,meteohub,2013-05-26 18:52:00,
2013-05-26 13:57:00,87.1,72.9,29.97,ESE,110,17.0,23.0,63,0.00,,,0.00,meteohub,2013-05-26 18:57:00,
2013-05-26 14:02:00,87.1,73.4,29.97,ESE,117,12.0,19.0,64,0.00,,,0.00,meteohub,2013-05-26 19:02:00,
2013-05-26 14:07:00,87.1,72.9,29.96,SE,124,14.0,21.0,63,0.00,,,0.00,meteohub,2013-05-26 19:07:00,
2013-05-26 14:12:00,86.7,72.7,29.96,ESE,113,9.0,21.0,63,0.00,,,0.00,meteohub,2013-05-26 19:12:00,
2013-05-26 14:17:00,86.7,72.7,29.96,SE,138,9.0,20.0,63,0.00,,,0.00,meteohub,2013-05-26 19:17:00,
2013-05-26 14:22:00,87.1,72.0,29.96,SSE,149,14.0,20.0,61,0.00,,,0.00,meteohub,2013-05-26 19:22:00,
2013-05-26 14:27:00,86.5,72.9,29.96,SE,139,9.0,20.0,64,0.00,,,0.00,meteohub,2013-05-26 19:27:00,
2013-05-26 14:32:00,86.7,73.0,29.96,ESE,119,18.0,19.0,64,0.00,,,0.00,meteohub,2013-05-26 19:32:00,
2013-05-26 14:37:00,86.7,72.1,29.96,SE,130,10.0,20.0,62,0.00,,,0.00,meteohub,2013-05-26 19:37:00,
2013-05-26 14:42:00,86.5,72.0,29.96,SE,128,10.0,24.0,62,0.00,,,0.00,meteohub,2013-05-26 19:42:00,
2013-05-26 14:47:00,87.1,72.9,29.96,SE,141,10.0,24.0,63,0.00,,,0.00,meteohub,2013-05-26 19:47:00,
2013-05-26 14:52:00,86.5,72.5,29.96,SE,124,11.0,23.0,63,0.00,,,0.00,meteohub,2013-05-26 19:52:00,
2013-05-26 14:57:00,86.7,72.1,29.96,ESE,112,12.0,21.0,62,0.00,,,0.00,meteohub,2013-05-26 19:57:00,
2013-05-26 15:02:00,86.4,72.3,29.96,ESE,104,14.0,21.0,63,0.00,,,0.00,meteohub,2013-05-26 20:02:00,
2013-05-26 15:07:00,86.5,72.5,29.96,South,176,10.0,21.0,63,0.00,,,0.00,meteohub,2013-05-26 20:07:00,
2013-05-26 15:12:00,86.5,72.5,29.96,ESE,109,12.0,21.0,63,0.00,,,0.00,meteohub,2013-05-26 20:12:00,
2013-05-26 15:17:00,86.5,72.5,29.96,SE,127,11.0,20.0,63,0.00,,,0.00,meteohub,2013-05-26 20:17:00,
2013-05-26 15:22:00,87.1,72.5,29.96,SE,136,11.0,20.0,62,0.00,,,0.00,meteohub,2013-05-26 20:22:00,
2013-05-26 15:27:00,86.5,72.5,29.96,SE,134,17.0,21.0,63,0.00,,,0.00,meteohub,2013-05-26 20:27:00,
2013-05-26 15:32:00,86.7,73.0,29.96,SE,146,9.0,21.0,64,0.00,,,0.00,meteohub,2013-05-26 20:32:00,
2013-05-26 15:37:00,86.5,72.5,29.96,ESE,107,15.0,21.0,63,0.00,,,0.00,meteohub,2013-05-26 20:37:00,
2013-05-26 15:42:00,86.4,72.3,29.96,SE,143,16.0,19.0,63,0.00,,,0.00,meteohub,2013-05-26 20:42:00,
2013-05-26 15:47:00,86.4,72.7,29.95,SE,129,9.0,19.0,64,0.00,,,0.00,meteohub,2013-05-26 20:47:00,
2013-05-26 15:52:00,86.0,72.3,29.95,ESE,105,17.0,19.0,64,0.00,,,0.00,meteohub,2013-05-26 20:52:00,
2013-05-26 15:57:00,85.8,71.8,29.95,SE,130,10.0,19.0,63,0.00,,,0.00,meteohub,2013-05-26 20:57:00,
2013-05-26 16:02:00,85.8,72.7,29.94,SE,130,11.0,19.0,65,0.00,,,0.00,meteohub,2013-05-26 21:02:00,
2013-05-26 16:07:00,86.2,73.0,29.94,ESE,105,12.0,19.0,65,0.00,,,0.00,meteohub,2013-05-26 21:07:00,
2013-05-26 16:12:00,86.4,72.7,29.94,SE,138,10.0,18.0,64,0.00,,,0.00,meteohub,2013-05-26 21:12:00,
2013-05-26 16:17:00,86.2,72.5,29.94,ESE,123,10.0,18.0,64,0.00,,,0.00,meteohub,2013-05-26 21:17:00,
2013-05-26 16:22:00,86.4,72.7,29.94,SE,141,11.0,19.0,64,0.00,,,0.00,meteohub,2013-05-26 21:22:00,
2013-05-26 16:27:00,86.4,73.2,29.93,ESE,123,15.0,20.0,65,0.00,,,0.00,meteohub,2013-05-26 21:27:00,
2013-05-26 16:32:00,86.4,73.2,29.93,SSE,150,10.0,21.0,65,0.00,,,0.00,meteohub,2013-05-26 21:32:00,
2013-05-26 16:37:00,86.4,73.6,29.93,ESE,117,14.0,21.0,66,0.00,,,0.00,meteohub,2013-05-26 21:37:00,
2013-05-26 16:42:00,85.8,73.2,29.93,ESE,113,16.0,22.0,66,0.00,,,0.00,meteohub,2013-05-26 21:42:00,
2013-05-26 16:47:00,85.6,72.5,29.93,ESE,120,12.0,22.0,65,0.00,,,0.00,meteohub,2013-05-26 21:47:00,
2013-05-26 16:52:00,85.8,73.2,29.93,ESE,121,13.0,22.0,66,0.00,,,0.00,meteohub,2013-05-26 21:52:00,
2013-05-26 16:57:00,85.8,72.1,29.93,SE,124,12.0,20.0,64,0.00,,,0.00,meteohub,2013-05-26 21:57:00,
2013-05-26 17:02:00,85.8,73.2,29.92,ENE,69,12.0,20.0,66,0.00,,,0.00,meteohub,2013-05-26 22:02:00,
2013-05-26 17:07:00,85.8,73.2,29.92,ESE,118,9.0,19.0,66,0.00,,,0.00,meteohub,2013-05-26 22:07:00,
2013-05-26 17:12:00,85.8,72.7,29.92,SE,131,16.0,19.0,65,0.00,,,0.00,meteohub,2013-05-26 22:12:00,
2013-05-26 17:17:00,85.6,72.5,29.92,ESE,116,16.0,21.0,65,0.00,,,0.00,meteohub,2013-05-26 22:17:00,
2013-05-26 17:22:00,85.5,71.4,29.92,East,97,19.0,22.0,63,0.00,,,0.00,meteohub,2013-05-26 22:22:00,
2013-05-26 17:27:00,85.5,72.0,29.92,ESE,116,17.0,22.0,64,0.00,,,0.00,meteohub,2013-05-26 22:27:00,
2013-05-26 17:32:00,85.3,71.8,29.91,SE,134,16.0,23.0,64,0.00,,,0.00,meteohub,2013-05-26 22:32:00,
2013-05-26 17:37:00,85.3,71.8,29.92,ESE,123,21.0,23.0,64,0.00,,,0.00,meteohub,2013-05-26 22:37:00,
2013-05-26 17:42:00,84.9,72.3,29.92,ESE,120,15.0,23.0,66,0.00,,,0.00,meteohub,2013-05-26 22:42:00,
2013-05-26 17:47:00,84.6,72.0,29.91,ESE,122,13.0,21.0,66,0.00,,,0.00,meteohub,2013-05-26 22:47:00,
2013-05-26 17:52:00,84.6,72.0,29.91,ESE,118,10.0,21.0,66,0.00,,,0.00,meteohub,2013-05-26 22:52:00,
2013-05-26 17:57:00,84.0,72.3,29.91,ESE,113,14.0,21.0,68,0.00,,,0.00,meteohub,2013-05-26 22:57:00,
2013-05-26 18:02:00,83.8,72.5,29.91,SE,132,13.0,20.0,69,0.00,,,0.00,meteohub,2013-05-26 23:02:00,
2013-05-26 18:07:00,83.5,72.3,29.91,SE,134,15.0,20.0,69,0.00,,,0.00,meteohub,2013-05-26 23:07:00,
2013-05-26 18:12:00,83.1,72.3,29.91,SE,130,12.0,20.0,70,0.00,,,0.00,meteohub,2013-05-26 23:12:00,
2013-05-26 18:17:00,82.9,73.0,29.90,SE,143,15.0,20.0,72,0.00,,,0.00,meteohub,2013-05-26 23:17:00,
2013-05-26 18:22:00,82.8,72.3,29.90,SSE,155,11.0,20.0,71,0.00,,,0.00,meteohub,2013-05-26 23:22:00,
2013-05-26 18:27:00,82.2,72.7,29.91,SSE,155,12.0,20.0,73,0.00,,,0.00,meteohub,2013-05-26 23:27:00,
2013-05-26 18:32:00,82.0,72.9,29.91,ESE,115,12.0,20.0,74,0.00,,,0.00,meteohub,2013-05-26 23:32:00,
2013-05-26 18:37:00,82.0,73.4,29.90,SE,134,10.0,21.0,75,0.00,,,0.00,meteohub,2013-05-26 23:37:00,
2013-05-26 18:42:00,81.9,73.2,29.90,ESE,112,13.0,21.0,75,0.00,,,0.00,meteohub,2013-05-26 23:42:00,
2013-05-26 18:47:00,81.7,73.0,29.91,SE,130,19.0,21.0,75,0.00,,,0.00,meteohub,2013-05-26 23:47:00,
2013-05-26 18:52:00,81.3,73.4,29.91,ESE,110,10.0,20.0,77,0.00,,,0.00,meteohub,2013-05-26 23:52:00,
2013-05-26 18:57:00,81.1,72.9,29.91,ESE,111,12.0,19.0,76,0.00,,,0.00,meteohub,2013-05-26 23:57:00,
2013-05-26 19:02:00,81.1,73.2,29.91,SE,126,10.0,19.0,77,0.00,,,0.00,meteohub,2013-05-27 00:02:00,
2013-05-26 19:07:00,81.1,73.2,29.91,ESE,104,14.0,19.0,77,0.00,,,0.00,meteohub,2013-05-27 00:07:00,
2013-05-26 19:12:00,81.0,73.0,29.91,SE,124,11.0,18.0,77,0.00,,,0.00,meteohub,2013-05-27 00:12:00,
2013-05-26 19:17:00,81.1,73.2,29.91,SE,138,11.0,18.0,77,0.00,,,0.00,meteohub,2013-05-27 00:17:00,
2013-05-26 19:22:00,81.0,73.4,29.91,ESE,114,9.0,18.0,78,0.00,,,0.00,meteohub,2013-05-27 00:22:00,
2013-05-26 19:27:00,80.8,73.2,29.91,ESE,116,14.0,18.0,78,0.00,,,0.00,meteohub,2013-05-27 00:27:00,
2013-05-26 19:32:00,80.8,73.2,29.91,ESE,122,13.0,18.0,78,0.00,,,0.00,meteohub,2013-05-27 00:32:00,
2013-05-26 19:37:00,80.8,73.6,29.91,ESE,102,11.0,18.0,79,0.00,,,0.00,meteohub,2013-05-27 00:37:00,
2013-05-26 19:42:00,80.4,73.2,29.92,SE,127,8.0,18.0,79,0.00,,,0.00,meteohub,2013-05-27 00:42:00,
2013-05-26 19:47:00,80.4,73.2,29.92,ESE,108,9.0,18.0,79,0.00,,,0.00,meteohub,2013-05-27 00:47:00,
2013-05-26 19:52:00,80.4,73.8,29.92,SE,126,8.0,18.0,80,0.00,,,0.00,meteohub,2013-05-27 00:52:00,
2013-05-26 19:57:00,80.2,73.0,29.92,SE,131,10.0,15.0,79,0.00,,,0.00,meteohub,2013-05-27 00:57:00,
2013-05-26 20:02:00,80.1,73.4,29.93,SE,132,11.0,17.0,80,0.00,,,0.00,meteohub,2013-05-27 01:02:00,
2013-05-26 20:07:00,79.9,73.6,29.93,SE,146,9.0,18.0,81,0.00,,,0.00,meteohub,2013-05-27 01:07:00,
2013-05-26 20:12:00,79.7,73.8,29.93,SE,131,10.0,19.0,82,0.00,,,0.00,meteohub,2013-05-27 01:12:00,
2013-05-26 20:17:00,79.5,73.6,29.93,ESE,120,11.0,19.0,82,0.00,,,0.00,meteohub,2013-05-27 01:17:00,
2013-05-26 20:22:00,79.3,73.4,29.93,SE,135,8.0,19.0,82,0.00,,,0.00,meteohub,2013-05-27 01:22:00,
2013-05-26 20:27:00,79.2,73.2,29.93,SSE,149,12.0,16.0,82,0.00,,,0.00,meteohub,2013-05-27 01:27:00,
2013-05-26 20:32:00,79.0,73.4,29.93,SE,136,10.0,19.0,83,0.00,,,0.00,meteohub,2013-05-27 01:32:00,
2013-05-26 20:37:00,79.0,73.4,29.93,SE,130,11.0,19.0,83,0.00,,,0.00,meteohub,2013-05-27 01:37:00,
2013-05-26 20:42:00,78.8,73.6,29.94,ESE,120,9.0,19.0,84,0.00,,,0.00,meteohub,2013-05-27 01:42:00,
2013-05-26 20:47:00,78.8,73.6,29.94,ESE,120,7.0,18.0,84,0.00,,,0.00,meteohub,2013-05-27 01:47:00,
2013-05-26 20:52:00,78.6,73.8,29.94,SE,136,8.0,18.0,85,0.00,,,0.00,meteohub,2013-05-27 01:52:00,
2013-05-26 20:57:00,78.6,73.8,29.95,SE,129,6.0,14.0,85,0.00,,,0.00,meteohub,2013-05-27 01:57:00,
2013-05-26 21:02:00,78.4,73.6,29.95,ESE,114,9.0,15.0,85,0.00,,,0.00,meteohub,2013-05-27 02:02:00,
2013-05-26 21:07:00,78.4,73.9,29.94,SE,127,10.0,15.0,86,0.00,,,0.00,meteohub,2013-05-27 02:07:00,
2013-05-26 21:12:00,78.3,73.8,29.94,SE,135,8.0,15.0,86,0.00,,,0.00,meteohub,2013-05-27 02:12:00,
2013-05-26 21:17:00,78.3,73.8,29.94,SE,135,6.0,13.0,86,0.00,,,0.00,meteohub,2013-05-27 02:17:00,
2013-05-26 21:22:00,78.1,73.6,29.95,SE,138,7.0,13.0,86,0.00,,,0.00,meteohub,2013-05-27 02:22:00,
2013-05-26 21:27:00,78.1,73.9,29.95,SSE,149,3.0,13.0,87,0.00,,,0.00,meteohub,2013-05-27 02:27:00,
2013-05-26 21:32:00,77.9,73.8,29.95,SE,129,4.0,11.0,87,0.00,,,0.00,meteohub,2013-05-27 02:32:00,
2013-05-26 21:37:00,77.9,73.8,29.95,SE,141,7.0,11.0,87,0.00,,,0.00,meteohub,2013-05-27 02:37:00,
2013-05-26 21:42:00,77.7,73.9,29.95,SE,131,8.0,14.0,88,0.00,,,0.00,meteohub,2013-05-27 02:42:00,
2013-05-26 21:47:00,77.7,73.9,29.95,ESE,121,10.0,14.0,88,0.00,,,0.00,meteohub,2013-05-27 02:47:00,
2013-05-26 21:52:00,77.7,73.9,29.95,SE,129,9.0,14.0,88,0.00,,,0.00,meteohub,2013-05-27 02:52:00,
2013-05-26 21:57:00,77.7,73.9,29.95,SE,141,7.0,14.0,88,0.00,,,0.00,meteohub,2013-05-27 02:57:00,
2013-05-26 22:02:00,77.5,73.8,29.94,SE,132,13.0,13.0,88,0.00,,,0.00,meteohub,2013-05-27 03:02:00,
2013-05-26 22:07:00,77.5,73.8,29.94,ESE,121,8.0,14.0,88,0.00,,,0.00,meteohub,2013-05-27 03:07:00,
2013-05-26 22:12:00,77.5,73.8,29.94,ESE,119,9.0,14.0,88,0.00,,,0.00,meteohub,2013-05-27 03:12:00,
2013-05-26 22:17:00,77.5,73.8,29.94,SE,136,6.0,14.0,88,0.00,,,0.00,meteohub,2013-05-27 03:17:00,
2013-05-26 22:22:00,77.5,74.1,29.94,SE,135,6.0,12.0,89,0.00,,,0.00,meteohub,2013-05-27 03:22:00,
2013-05-26 22:27:00,77.4,73.9,29.94,SE,135,6.0,12.0,89,0.00,,,0.00,meteohub,2013-05-27 03:27:00,
2013-05-26 22:32:00,77.4,73.9,29.94,SE,124,8.0,12.0,89,0.00,,,0.00,meteohub,2013-05-27 03:32:00,
2013-05-26 22:37:00,77.4,73.9,29.94,SE,131,8.0,13.0,89,0.00,,,0.00,meteohub,2013-05-27 03:37:00,
2013-05-26 22:42:00,77.4,73.9,29.94,ESE,120,9.0,13.0,89,0.00,,,0.00,meteohub,2013-05-27 03:42:00,
2013-05-26 22:47:00,77.2,73.9,29.94,ESE,121,9.0,13.0,90,0.00,,,0.00,meteohub,2013-05-27 03:47:00,
2013-05-26 22:51:00,77.2,73.9,29.95,SE,129,7.0,12.0,90,0.00,,,0.00,meteohub,2013-05-27 03:51:00,
2013-05-26 22:57:00,77.2,73.9,29.95,SE,124,10.0,12.0,90,0.00,,,0.00,meteohub,2013-05-27 03:57:00,
2013-05-26 23:01:00,77.2,73.9,29.95,SE,127,8.0,14.0,90,0.00,,,0.00,meteohub,2013-05-27 04:01:00,
2013-05-26 23:02:00,77.2,73.9,29.95,SE,143,9.0,14.0,90,0.00,,,0.00,meteohub,2013-05-27 04:02:00,
2013-05-26 23:03:00,77.2,73.9,29.95,ESE,118,11.0,14.0,90,0.00,,,0.00,meteohub,2013-05-27 04:03:00,
2013-05-26 23:08:00,77.2,73.9,29.95,SE,139,9.0,14.0,90,0.00,,,0.00,meteohub,2013-05-27 04:08:00,
2013-05-26 23:13:00,77.0,73.8,29.95,SE,136,9.0,14.0,90,0.00,,,0.00,meteohub,2013-05-27 04:13:00,
2013-05-26 23:18:00,77.0,73.8,29.95,SE,128,10.0,12.0,90,0.00,,,0.00,meteohub,2013-05-27 04:18:00,
2013-05-26 23:23:00,77.0,73.8,29.96,ESE,119,8.0,12.0,90,0.00,,,0.00,meteohub,2013-05-27 04:23:00,
2013-05-26 23:28:00,77.0,73.8,29.96,SE,128,6.0,12.0,90,0.00,,,0.00,meteohub,2013-05-27 04:28:00,
2013-05-26 23:33:00,76.8,73.6,29.96,ESE,116,5.0,12.0,90,0.00,,,0.00,meteohub,2013-05-27 04:33:00,
2013-05-26 23:38:00,76.8,73.6,29.96,SE,132,8.0,11.0,90,0.00,,,0.00,meteohub,2013-05-27 04:38:00,
2013-05-26 23:43:00,76.8,73.6,29.95,SE,129,5.0,11.0,90,0.00,,,0.00,meteohub,2013-05-27 04:43:00,
2013-05-26 23:49:00,76.6,73.4,29.96,SE,132,5.0,11.0,90,0.00,,,0.00,meteohub,2013-05-27 04:49:00,
2013-05-26 23:54:00,76.6,73.8,29.96,ESE,113,6.0,11.0,91,0.00,,,0.00,meteohub,2013-05-27 04:54:00,
2013-05-26 23:59:00,76.6,73.8,29.95,SE,127,4.0,11.0,91,0.00,,,0.00,meteohub,2013-05-27 04:59:00,